Tracking 21094 objects as of 12-Aug-2020
HD Live streaming from Space Station
objects crossing your sky now
Track the most recent launched group of Starlink satellites

COSMOS 1884 (GLONASS)

Track COSMOS 1884 (GLONASS) now!
COSMOS 1884 (GLONASS) is classified as:


NORAD ID: 18356
Int'l Code: 1987-079B
Perigee: 19,088.1 km
Apogee: 19,185.9 km
Inclination: 65.9 °
Period: 675.7 minutes
Semi major axis: 25507 km
RCS: 0.8552 m2 (medium)
Launch date: September 16, 1987
Source: Commonwealth of Independent States (former USSR) (CIS)
Launch site: TYURATAM MISSILE AND SPACE COMPLEX (TTMTR)
aabbcc
Your satellite tracking list
Your tracking list is empty




NASA's NSSDC Master Catalog

Two Line Element Set (TLE):
1 18356U 87079B   20223.28729968 -.00000038 +00000-0 +00000-0 0  9996
2 18356 065.9426 030.2977 0019167 215.0198 143.2634 02.13102831256125
Source of the keplerian elements: AFSPC